Location: Bismarck
(46.7731°N, 100.8200°W)
Time: 08:34:33
(UTC-05:00)

ISS - All Passes

Search period start: 31 October 2014 00:00
Search period end: 09 November 2014 23:00
Orbit: 412 x 417 km, 51.6° (Epoch: 31 October)

Date Brightness Start Highest point End Pass type
(mag) Time Alt. Az. Time Alt. Az. Time Alt. Az.
31 Oct - 11:14:18 10° SSW 11:17:13 29° SE 11:20:10 10° E daylight
31 Oct - 12:50:29 10° WSW 12:53:46 59° NNW 12:57:05 10° ENE daylight
31 Oct - 14:27:47 10° WNW 14:30:52 34° N 14:33:57 10° ENE daylight
31 Oct - 16:04:39 10° WNW 16:07:58 57° NNE 16:11:16 10° E daylight
31 Oct - 17:41:32 10° WNW 17:44:32 31° SW 17:47:31 10° SSE daylight
01 Nov - 10:25:51 10° S 10:28:13 18° SE 10:30:35 10° E daylight
01 Nov - 12:01:14 10° WSW 12:04:33 83° NNW 12:07:54 10° ENE daylight
01 Nov - 13:38:26 10° WNW 13:41:32 35° N 13:44:39 10° ENE daylight
01 Nov - 15:15:28 10° WNW 15:18:42 44° NNE 15:21:55 10° E daylight
01 Nov - 16:52:12 10° WNW 16:55:26 49° SSW 16:58:41 10° SE daylight
02 Nov - 08:38:09 10° SSE 08:39:13 11° SE 08:40:17 10° ESE daylight
02 Nov - 10:12:03 10° SW 10:15:21 66° SSE 10:18:40 10° ENE daylight
02 Nov - 11:49:02 10° W 11:52:12 39° N 11:55:22 10° ENE daylight
02 Nov - 13:26:13 10° WNW 13:29:21 37° N 13:32:30 10° E daylight
02 Nov - 15:02:55 10° WNW 15:06:15 77° SSW 15:09:35 10° ESE daylight
02 Nov - 16:40:42 10° WSW 16:42:28 14° SW 16:44:14 10° SSW daylight
03 Nov - 09:23:01 10° SW 09:26:09 41° SE 09:29:19 10° ENE daylight
03 Nov - 10:59:36 10° W 11:02:50 48° NNW 11:06:05 10° ENE daylight
03 Nov - 12:36:52 10° WNW 12:39:58 34° N 12:43:03 10° ENE daylight
03 Nov - 14:13:39 10° WNW 14:16:59 73° NNE 14:20:19 10° ESE daylight
03 Nov - 15:50:45 10° W 15:53:24 22° SW 15:56:02 10° S daylight
04 Nov - 08:34:10 10° SSW 08:36:59 26° SE 08:39:48 10° E daylight
04 Nov - 10:10:10 10° WSW 10:13:28 64° NNW 10:16:47 10° ENE daylight
04 Nov - 11:47:26 10° WNW 11:50:31 34° N 11:53:36 10° ENE daylight
04 Nov - 13:24:21 10° WNW 13:27:37 53° NNE 13:30:54 10° E daylight
04 Nov - 15:01:10 10° WNW 15:04:14 35° SW 15:07:18 10° SSE daylight
05 Nov - 07:45:41 10° S 07:47:49 16° SE 07:49:58 10° E daylight
05 Nov - 09:20:47 10° WSW 09:24:06 89° SSE 09:27:26 10° ENE daylight
05 Nov - 10:57:56 10° WNW 11:01:02 36° N 11:04:09 10° ENE daylight
05 Nov - 12:34:59 10° WNW 12:38:11 42° NNE 12:41:23 10° E daylight
05 Nov - 14:11:41 10° WNW 14:14:58 56° SSW 14:18:14 10° SE daylight
06 Nov - 08:31:29 10° SW 08:34:45 58° SSE 08:38:01 10° ENE daylight
06 Nov - 10:08:21 10° W 10:11:32 41° NNW 10:14:43 10° ENE daylight
06 Nov - 11:45:34 10° WNW 11:48:41 36° N 11:51:48 10° ENE daylight
06 Nov - 13:22:16 10° WNW 13:25:36 86° SSW 13:28:56 10° ESE daylight
06 Nov - 14:59:48 10° W 15:01:52 16° SW 15:03:56 10° S daylight
07 Nov - 07:42:20 10° SSW 07:45:24 36° SE 07:48:29 10° ENE daylight
07 Nov - 09:18:46 10° W 09:22:01 51° NNW 09:25:17 10° ENE daylight
07 Nov - 10:56:03 10° WNW 10:59:07 34° N 11:02:12 10° ENE daylight
07 Nov - 12:32:50 10° WNW 12:36:10 66° NNE 12:39:28 10° ESE daylight
07 Nov - 14:09:50 10° W 14:12:37 25° SW 14:15:24 10° SSE daylight
08 Nov - 06:53:25 10° SSW 06:56:05 23° SE 06:58:45 10° E visible
08 Nov - 08:29:11 10° WSW 08:32:30 70° NNW 08:35:50 10° ENE daylight
08 Nov - 10:06:26 10° WNW 10:09:31 34° N 10:12:36 10° ENE daylight
08 Nov - 11:43:22 10° WNW 11:46:38 49° NNE 11:49:52 10° E daylight
08 Nov - 13:20:08 10° WNW 13:23:16 39° SW 13:26:24 10° SE daylight
09 Nov - 06:04:58 10° SSE 06:06:47 14° SE 06:08:36 10° E visible
09 Nov - 07:39:40 10° WSW 07:43:00 80° SSE 07:46:19 10° ENE daylight
09 Nov - 09:16:45 10° WNW 09:19:53 37° N 09:23:01 10° ENE daylight
09 Nov - 10:53:51 10° WNW 10:57:01 40° NNE 11:00:11 10° E daylight
09 Nov - 12:30:32 10° WNW 12:33:50 64° SSW 12:37:07 10° SE daylight
09 Nov - 14:09:03 10° WSW 14:09:56 11° SW 14:10:49 10° SSW daylight
